Location: Aufkirchen
(47.9603°N, 11.3653°E)
Time: 11:14:12
(UTC+01:00)

Tiros 1 - Pass Details

Date: 04 December 2020
Orbit: 630 x 663 km, 48.4° (Epoch: 21 January)

Event Time Altitude Azimuth Distance (km) Brightness Sun altitude
Rises 16:38:32 0° 274° (W) 2,994 11.6 -3.1°
Reaches altitude 10° 16:40:53 10° 275° (W) 2,080 10.7 -3.5°
Maximum altitude 16:45:43 86° 4° (N) 667 7.2 -4.2°
Drops below altitude 10° 16:50:30 10° 94° (E) 2,066 9.2 -4.9°
Enters shadow 16:52:34 - 95° (E) 2,865 10.0 -5.2°
Sets 16:52:50 0° 95° (E) 2,973 - -5.2°
